Bogalusa, LA

2:42 PM CDT on July 22, 2017 (GMT -0500)
Carr Memorial

Weather History for KBXA - March, 2014

Change the Weather History Date:

Tuesday, March 25, 2014

  Actual Average Record
Temperature  
Mean Temperature 52 °F -  
Max Temperature 65 °F 71 °F 82 °F (2015)
Min Temperature 39 °F 46 °F 32 °F (2013)
Degree Days  
Heating Degree Days 13    
Growing Degree Days 2 (Base 50)    
Moisture  
Dew Point 30 °F    
Average Humidity 49    
Maximum Humidity 86    
Minimum Humidity 19    
Precipitation  
Precipitation 0.00 in - - ()
Sea Level Pressure  
Sea Level Pressure 30.19 in    
Wind  
Wind Speed 8 mph (North)    
Max Wind Speed 24 mph    
Max Gust Speed 34 mph    
Visibility 10 miles    
Events Thunderstorm    
Averages and records for this station are not official NWS values.
T = Trace of Precipitation, MM = Missing Value Source: NWS Daily Summary

Daily Weather History Graph

Daily Weather History Graph

Search for Another Location

Airport or City:

Trip Planner

Search our weather history database for the weather conditions in past years. The results will help you decide how hot, cold, wet, or windy it might be!

Date:

Astronomy

Mar. 25, 2014 Rise Set
Actual Time 6:57 AM CDT 7:14 PM CDT
Civil Twilight 6:32 AM CDT 7:38 PM CDT
Nautical Twilight 6:04 AM CDT 8:06 PM CDT
Astronomical Twilight 5:36 AM CDT 8:35 PM CDT
Moon 2:58 AM CDT (3/25) 2:03 PM CDT (3/25)
Length of Visible Light 13h 05m
Length of Day
12h 17m
Waning Crescent, 32% of the Moon is Illuminated
Mar 25
Waning Crescent
Mar 30
New
Apr 7
First Quarter
Apr 15
Full
Apr 22
Last Quarter

Hourly Weather History & Observations

Time (CDT) Temp. Windchill Dew Point Humidity Pressure Visibility Wind Dir Wind Speed Gust Speed Precip Events Conditions
12:15 AM 49.3 °F - 45.3 °F 86% 30.07 in 10.0 mi Calm Calm - N/A   Unknown
12:35 AM 50.0 °F - 42.8 °F 76% 30.08 in 10.0 mi North 5.8 mph - N/A   Unknown
12:55 AM 51.4 °F - 41.9 °F 70% 30.09 in 10.0 mi North 6.9 mph - N/A   Unknown
1:15 AM 50.4 °F - 41.0 °F 70% 30.09 in 10.0 mi North 5.8 mph - N/A   Unknown
1:35 AM 49.3 °F - 40.5 °F 72% 30.09 in 10.0 mi North 5.8 mph - N/A   Unknown
1:55 AM 48.7 °F - 40.1 °F 72% 30.09 in 10.0 mi North 4.6 mph - N/A   Unknown
2:15 AM 48.2 °F - 39.2 °F 71% 30.09 in 10.0 mi North 4.6 mph - N/A   Unknown
2:35 AM 47.5 °F - 39.2 °F 73% 30.09 in 10.0 mi North 5.8 mph - N/A   Unknown
2:55 AM 47.5 °F - 38.7 °F 71% 30.09 in 10.0 mi North 6.9 mph - N/A   Unknown
3:15 AM 47.3 °F - 37.9 °F 70% 30.09 in 10.0 mi North 5.8 mph - N/A   Unknown
3:35 AM 46.8 °F - 37.4 °F 70% 30.09 in 10.0 mi North 6.9 mph - N/A   Unknown
3:55 AM 46.0 °F 43.1 °F 36.7 °F 70% 30.09 in 10.0 mi North 5.8 mph - N/A   Unknown
4:15 AM 44.8 °F 42.4 °F 36.0 °F 71% 30.09 in 10.0 mi North 4.6 mph - N/A   Unknown
4:35 AM 43.9 °F 41.3 °F 36.0 °F 74% 30.09 in 10.0 mi North 4.6 mph - N/A   Unknown
4:55 AM 44.6 °F - 35.6 °F 71% 30.09 in 10.0 mi Calm Calm - N/A   Unknown
5:15 AM 43.0 °F - 35.8 °F 76% 30.10 in 10.0 mi Calm Calm - N/A   Unknown
5:40 AM 41.4 °F - 36.7 °F 83% 30.11 in 10.0 mi Calm Calm - N/A   Unknown
5:55 AM 39.9 °F 37.8 °F 35.8 °F 85% 30.12 in 10.0 mi North 3.5 mph - N/A Thunderstorm Unknown
6:15 AM 39.9 °F 35.1 °F 36.0 °F 86% 30.13 in 10.0 mi North 6.9 mph - N/A   Unknown
6:35 AM 41.0 °F 37.1 °F 34.0 °F 76% 30.14 in 10.0 mi North 5.8 mph - N/A   Unknown
6:55 AM 41.0 °F 37.1 °F 34.0 °F 76% 30.16 in 10.0 mi North 5.8 mph - N/A   Unknown
7:15 AM 41.4 °F 37.6 °F 33.8 °F 74% 30.17 in 10.0 mi North 5.8 mph - N/A   Unknown
7:35 AM 42.1 °F 39.2 °F 34.2 °F 74% 30.17 in 10.0 mi North 4.6 mph - N/A   Unknown
7:55 AM 44.1 °F 41.5 °F 34.5 °F 69% 30.18 in 10.0 mi North 4.6 mph - N/A   Unknown
8:15 AM 46.0 °F 43.9 °F 35.1 °F 66% 30.18 in 10.0 mi North 4.6 mph - N/A   Unknown
8:35 AM 48.0 °F - 34.9 °F 60% 30.19 in 10.0 mi North 6.9 mph - N/A   Unknown
8:55 AM 50.0 °F - 33.1 °F 52% 30.20 in 10.0 mi North 6.9 mph - N/A   Unknown
9:15 AM 52.3 °F - 32.4 °F 47% 30.21 in 10.0 mi North 9.2 mph - N/A   Unknown
9:35 AM 55.2 °F - 29.8 °F 38% 30.22 in 10.0 mi North 9.2 mph - N/A   Unknown
9:55 AM 56.8 °F - 25.7 °F 30% 30.22 in 10.0 mi North 12.7 mph - N/A   Unknown
10:15 AM 58.1 °F - 27.1 °F 31% 30.23 in 10.0 mi North 11.5 mph - N/A   Unknown
10:35 AM 59.4 °F - 27.1 °F 29% 30.24 in 10.0 mi North 15.0 mph 20.7 mph N/A   Unknown
10:55 AM 60.8 °F - 28.9 °F 30% 30.24 in 10.0 mi NNW 15.0 mph 21.9 mph N/A   Unknown
11:15 AM 61.5 °F - 28.9 °F 29% 30.24 in 10.0 mi North 16.1 mph 24.2 mph N/A   Unknown
11:35 AM 63.3 °F - 30.7 °F 29% 30.23 in 10.0 mi NNW 16.1 mph 21.9 mph N/A   Unknown
11:55 AM 63.3 °F - 27.7 °F 26% 30.23 in 10.0 mi North 19.6 mph 28.8 mph N/A   Unknown
12:15 PM 64.0 °F - 26.2 °F 24% 30.23 in 10.0 mi NNW 17.3 mph 28.8 mph N/A   Unknown
12:35 PM 65.1 °F - 26.1 °F 23% 30.22 in 10.0 mi NNW 18.4 mph 28.8 mph N/A   Unknown
12:55 PM 64.6 °F - 23.0 °F 21% 30.23 in 10.0 mi North 24.2 mph 32.2 mph N/A   Unknown
1:15 PM 64.4 °F - 24.8 °F 22% 30.22 in 10.0 mi North 20.7 mph 28.8 mph N/A   Clear
1:40 PM 64.9 °F - 24.4 °F 22% 30.21 in 10.0 mi North 17.3 mph 26.5 mph N/A   Clear
1:55 PM 64.9 °F - 25.2 °F 22% 30.21 in 10.0 mi North 19.6 mph 28.8 mph N/A   Clear
2:15 PM 65.1 °F - 26.2 °F 23% 30.20 in 10.0 mi NNW 19.6 mph 25.3 mph N/A   Unknown
2:35 PM 65.3 °F - 26.2 °F 23% 30.20 in 10.0 mi North 15.0 mph 24.2 mph N/A   Unknown
2:55 PM 64.9 °F - 25.3 °F 22% 30.19 in 10.0 mi North 18.4 mph 29.9 mph N/A   Unknown
3:15 PM 65.3 °F - 25.5 °F 22% 30.18 in 10.0 mi North 19.6 mph 27.6 mph N/A   Clear
3:35 PM 64.8 °F - 21.6 °F 19% 30.19 in - North 23.0 mph 34.5 mph N/A   Clear
3:55 PM 64.6 °F - 22.1 °F 20% 30.19 in 10.0 mi North 16.1 mph 25.3 mph N/A   Clear
4:15 PM 64.9 °F - 21.6 °F 19% 30.20 in 10.0 mi North 18.4 mph 24.2 mph N/A   Clear
4:35 PM 63.7 °F - 20.8 °F 19% 30.19 in 10.0 mi North 17.3 mph 25.3 mph N/A   Clear
4:55 PM 63.5 °F - 20.1 °F 19% 30.19 in 10.0 mi North 24.2 mph - N/A   Clear
5:15 PM 62.2 °F - 19.8 °F 19% 30.19 in 10.0 mi North 24.2 mph 28.8 mph N/A   Clear
5:35 PM 61.7 °F - 21.2 °F 21% 30.20 in 10.0 mi North 19.6 mph 28.8 mph N/A   Clear
5:55 PM 61.2 °F - 21.6 °F 22% 30.20 in 10.0 mi NNW 13.8 mph 26.5 mph N/A   Clear
6:20 PM 59.7 °F - 20.8 °F 22% 30.21 in 10.0 mi North 18.4 mph 26.5 mph N/A   Clear
6:35 PM 58.6 °F - 22.1 °F 24% 30.21 in 10.0 mi North 15.0 mph 24.2 mph N/A   Clear
6:55 PM 57.2 °F - 23.4 °F 27% 30.22 in 10.0 mi North 10.4 mph 13.8 mph N/A   Clear
7:15 PM 54.5 °F - 25.7 °F 33% 30.23 in 10.0 mi North 8.1 mph 16.1 mph N/A   Unknown
7:35 PM 53.1 °F - 25.5 °F 34% 30.23 in 10.0 mi North 5.8 mph - N/A   Unknown
7:55 PM 52.3 °F - 25.0 °F 35% 30.24 in 10.0 mi NNE 5.8 mph - N/A   Unknown
8:15 PM 50.2 °F - 27.1 °F 41% 30.25 in 10.0 mi North 6.9 mph - N/A   Unknown
8:35 PM 49.8 °F - 27.3 °F 42% 30.26 in 10.0 mi North 8.1 mph - N/A   Unknown
8:55 PM 48.7 °F - 27.5 °F 44% 30.27 in 10.0 mi North 6.9 mph - N/A   Unknown
9:15 PM 47.7 °F - 28.0 °F 47% 30.28 in 10.0 mi North 3.5 mph - N/A   Unknown
9:35 PM 46.4 °F 44.3 °F 28.9 °F 51% 30.29 in 10.0 mi North 4.6 mph - N/A   Unknown
9:55 PM 44.8 °F 43.3 °F 30.6 °F 57% 30.30 in 10.0 mi North 3.5 mph - N/A   Unknown
10:15 PM 42.4 °F 40.7 °F 32.0 °F 67% 30.30 in 10.0 mi North 3.5 mph - N/A   Unknown
10:35 PM 42.1 °F 40.2 °F 32.4 °F 68% 30.30 in 10.0 mi North 3.5 mph - N/A   Unknown
10:55 PM 41.7 °F - 31.8 °F 68% 30.31 in 10.0 mi Calm Calm - N/A   Unknown
11:15 PM 42.6 °F 40.9 °F 31.8 °F 66% 30.30 in 10.0 mi North 3.5 mph - N/A   Unknown
11:35 PM 41.2 °F 39.2 °F 32.0 °F 70% 30.30 in 10.0 mi NE 3.5 mph - N/A   Unknown
11:55 PM 41.7 °F 39.8 °F 31.6 °F 67% 30.31 in 10.0 mi NNW 3.5 mph - N/A   Unknown